Location: Ellerstadt
(49.4644°N, 8.2615°E)
Time: 00:36:30
(UTC+00:00)

ISS - Pass Details

Date: 23 May 2021
Orbit: 417 x 422 km, 51.6° (Epoch: 15 June)

Event Time Altitude Azimuth Distance (km) Brightness Sun altitude
Rises 21:45:44 0° 288° (WNW) 2,369 0.7 -16.5°
Reaches altitude 10° 21:47:50 10° 288° (WNW) 1,505 -0.4 -16.6°
Maximum altitude 21:51:12 84° 202° (SSW) 428 -3.9 -16.8°
Enters shadow 21:52:18 40° 116° (ESE) 635 -3.2 -16.9°
